WetterOnline ( https://www.wetteronline.de )

Wetter aktuell Mayen

Aktuelles Wetter: Andernach (75m)

6-stündlich | Neueste Meldungen
Ortszeit Temperatur Wetter
So, 31.05. 14:00 20.2° C wolkenlos
So, 31.05. 8:00 11.5° C leicht bewölkt
So, 31.05. 2:00 9.5° C wolkenlos
Sa, 30.05. 20:00 20.1° C bewölkt
Sa, 30.05. 14:00 21.4° C leicht bewölkt
Sa, 30.05. 8:00 14.0° C wolkenlos
Sa, 30.05. 2:00 9.8° C wolkenlos
Fr, 29.05. 20:00 21.4° C wolkenlos
Ortszeit Temperatur Wetter
So, 31.05. 16:00 20.9° C fast wolkenlos
So, 31.05. 15:50 20.9° C fast wolkenlos
So, 31.05. 15:40 21.2° C fast wolkenlos
So, 31.05. 15:30 21.6° C leicht bewölkt
So, 31.05. 15:20 21.6° C leicht bewölkt
So, 31.05. 15:10 20.9° C fast wolkenlos
So, 31.05. 15:00 20.9° C leicht bewölkt
So, 31.05. 14:30 20.7° C fast wolkenlos
So, 31.05. 14:00 20.2° C wolkenlos
So, 31.05. 13:30 19.8° C wolkenlos
So, 31.05. 13:00 19.3° C leicht bewölkt
Ortszeit Relative Feuchte Sichtweite
So, 31.05. 14:00 31% >70 km
So, 31.05. 8:00 69% 40 km
So, 31.05. 2:00 71% 45 km
Sa, 30.05. 20:00 32% >70 km
Sa, 30.05. 14:00 30% 45 km
Sa, 30.05. 8:00 52% 55 km
Sa, 30.05. 2:00 70% 55 km
Fr, 29.05. 20:00 26% 60 km
Ortszeit Relative Feuchte Sichtweite
So, 31.05. 16:00 32% 45 km
So, 31.05. 15:50 32% -
So, 31.05. 15:40 33% -
So, 31.05. 15:30 32% 40 km
So, 31.05. 15:20 32% -
So, 31.05. 15:10 32% -
So, 31.05. 15:00 32% >70 km
So, 31.05. 14:30 32% >70 km
So, 31.05. 14:00 31% >70 km
So, 31.05. 13:30 30% 40 km
So, 31.05. 13:00 33% 55 km
Ortszeit Niederschlagsmenge Niederschlagsart
So, 31.05. 14:00 0.0 l/m2 in 6 Std. -
So, 31.05. 8:00 0.0 l/m2 in 12 Std. -
So, 31.05. 2:00 0.0 l/m2 in 6 Std. -
Sa, 30.05. 20:00 0.0 l/m2 in 12 Std. -
Sa, 30.05. 14:00 0.0 l/m2 in 6 Std. -
Sa, 30.05. 8:00 0.0 l/m2 in 12 Std. -
Sa, 30.05. 2:00 0.0 l/m2 in 6 Std. -
Fr, 29.05. 20:00 0.0 l/m2 in 12 Std. -
Ortszeit Niederschlagsmenge Niederschlagsart
So, 31.05. 16:00 0.0 l/m2 in 1 Std. -
So, 31.05. 15:50 keine Meldung -
So, 31.05. 15:40 keine Meldung -
So, 31.05. 15:30 0.0 l/m2 in 1 Std. -
So, 31.05. 15:20 keine Meldung -
So, 31.05. 15:10 keine Meldung -
So, 31.05. 15:00 0.0 l/m2 in 1 Std. -
So, 31.05. 14:30 0.0 l/m2 in 1 Std. -
So, 31.05. 14:00 0.0 l/m2 in 1 Std. -
So, 31.05. 13:30 0.0 l/m2 in 1 Std. -
So, 31.05. 13:00 0.0 l/m2 in 1 Std. -
Ortszeit Stärke Spitze Richtung
km/h Bft. km/h Grad Sektor
So, 31.05. 14:00 14 3 47 70° O
So, 31.05. 8:00 4 1 11 220° SW
So, 31.05. 2:00 7 2 29 200° S
Sa, 30.05. 20:00 17 3 35 80° O
Sa, 30.05. 14:00 22 4 39 120° SO
Sa, 30.05. 8:00 2 1 11 290° W
Sa, 30.05. 2:00 4 1 25 230° SW
Fr, 29.05. 20:00 13 3 31 110° O
Ortszeit Stärke Spitze Richtung
km/h Bft. km/h Grad Sektor
So, 31.05. 16:00 18 3 32 100° O
So, 31.05. 15:50 18 3 - 100° O
So, 31.05. 15:40 18 3 - 120° SO
So, 31.05. 15:30 15 3 28 100° O
So, 31.05. 15:20 15 3 - 100° O
So, 31.05. 15:10 17 3 - 70° O
So, 31.05. 15:00 18 3 36 130° SO
So, 31.05. 14:30 14 3 25 90° O
So, 31.05. 14:00 14 3 32 70° O
So, 31.05. 13:30 11 2 26 100° O
So, 31.05. 13:00 17 3 46 70° O
Ortszeit Untergrenze Bedeckung Gattung
total tief tief mittel hoch
So, 31.05. 14:00 - 0/8 0/8 - - -
So, 31.05. 8:00 7800 m 6/8 0/8 - - -
So, 31.05. 2:00 - 0/8 0/8 - - -
Sa, 30.05. 20:00 2400 m 7/8 7/8 - - -
Sa, 30.05. 14:00 2100 m 4/8 4/8 - - -
Sa, 30.05. 8:00 - 0/8 0/8 - - -
Sa, 30.05. 2:00 - 0/8 0/8 - - -
Fr, 29.05. 20:00 - 0/8 0/8 - - -
Ortszeit Bedeckungsgrad in Achtel und Wolkenuntergrenze
So, 31.05. 16:00 1(7200m)
So, 31.05. 15:50 1(7200m)
So, 31.05. 15:40 1(7200m) 1(10500m)
So, 31.05. 15:30 1(1800m) 3(10500m)
So, 31.05. 15:20 1(1800m) 2(9000m) 3(10500m)
So, 31.05. 15:10 2(9000m)
So, 31.05. 15:00 1(1800m) 3(9000m)
So, 31.05. 14:30 2(10500m) 3(10500m)
So, 31.05. 14:00 keine Wolken
So, 31.05. 13:30 keine Wolken
So, 31.05. 13:00 3(1500m)
Ortszeit Luftdruck NN (hPa) Tendenz (hPa in 3 Std.)
So, 31.05. 14:00 1021 - 0,9
So, 31.05. 8:00 1022 + 0,4
So, 31.05. 2:00 1022 0,0
Sa, 30.05. 20:00 1021 - 0,3
Sa, 30.05. 14:00 1022 - 1,1
Sa, 30.05. 8:00 1024 + 0,2
Sa, 30.05. 2:00 1024 + 0,5
Fr, 29.05. 20:00 1023 - 1,1
Ortszeit Luftdruck NN (hPa) Tendenz (hPa in 3 Std.)
So, 31.05. 16:00 1021 - 0,7
So, 31.05. 15:50 1021 keine Meldung
So, 31.05. 15:40 1020 keine Meldung
So, 31.05. 15:30 1021 - 0,8
So, 31.05. 15:20 1021 keine Meldung
So, 31.05. 15:10 1021 keine Meldung
So, 31.05. 15:00 1021 - 1,0
So, 31.05. 14:30 1021 - 1,0
So, 31.05. 14:00 1021 - 0,9
So, 31.05. 13:30 1021 - 0,7
So, 31.05. 13:00 1021 - 0,5
Ortszeit Schneehöhe (cm)
So, 31.05. 14:00 -
So, 31.05. 8:00 -
So, 31.05. 2:00 -
Sa, 30.05. 20:00 -
Sa, 30.05. 14:00 -
Sa, 30.05. 8:00 -
Sa, 30.05. 2:00 -
Fr, 29.05. 20:00 -
Ortszeit Schneehöhe (cm)
So, 31.05. 16:00 -
So, 31.05. 15:50 -
So, 31.05. 15:40 -
So, 31.05. 15:30 -
So, 31.05. 15:20 -
So, 31.05. 15:10 -
So, 31.05. 15:00 -
So, 31.05. 14:30 -
So, 31.05. 14:00 -
So, 31.05. 13:30 -
So, 31.05. 13:00 -
Link zu dieser Seite / Seite empfehlen

Das Wetter in ...